This demonstration page uses our WeatherBlox Daily Observations layout. Learn more.

Left ArrowRight Arrow

Hourly Observations for March 4, 2019

Temp ( °F °C ) Dew Point ( °F °C ) Humidity (%) Winds ( mph kmh ) Pressure ( in mb ) Visibility ( mi km ) Precip ( " mm )
12:51 am 00:51 Clear 53 11.7 38 3.3 57 57 WNW 8 13 29.85 1011 10 16 N/A
1:51 am 01:51 Clear 48 8.9 38 3.3 68 68 WNW 8 13 29.86 1011 10 16 N/A
2:51 am 02:51 Clear 48 8.9 37 2.8 66 66 WNW 3 6 29.85 1011 10 16 N/A
3:51 am 03:51 Clear 46 7.8 37 2.8 71 71 E 6 9 29.85 1011 10 16 N/A
4:51 am 04:51 Clear 45 7.2 37 2.8 74 74 ESE 6 9 29.88 1012 10 16 N/A
5:51 am 05:51 Clear 42 5.6 36 2.2 79 79 E 6 9 29.91 1013 10 16 N/A
6:51 am 06:51 Sunny 40 4.4 35 1.7 83 83 N N/A 29.94 1014 10 16 N/A
7:51 am 07:51 Sunny 49 9.4 38 3.3 66 66 SSE 3 6 29.95 1014 10 16 N/A
8:51 am 08:51 Sunny 52 11.1 38 3.3 59 59 S 6 9 29.97 1015 10 16 N/A
9:51 am 09:51 Sunny 57 13.9 39 3.9 51 51 S 3 6 29.96 1015 10 16 N/A
10:51 am 10:51 Sunny 62 16.7 37 2.8 40 40 N N/A 29.94 1014 10 16 N/A
11:51 am 11:51 Sunny 63 17.2 34 1.1 34 34 W 5 7 29.93 1014 10 16 N/A
12:51 pm 12:51 Sunny 67 19.4 34 1.1 30 30 WNW 10 17 29.91 1013 10 16 N/A
1:51 pm 13:51 Sunny 67 19.4 34 1.1 30 30 WSW 6 9 29.88 1012 10 16 N/A
2:51 pm 14:51 Sunny 71 21.7 32 undefined 24 24 NW 10 17 29.86 1011 10 16 N/A
3:51 pm 15:51 Sunny 71 21.7 31 -0.6 23 23 WNW 17 28 29.86 1011 10 16 N/A
4:51 pm 16:51 Sunny 70 21.1 30 -1.1 23 23 NW 12 19 29.86 1011 10 16 N/A
5:51 pm 17:51 Sunny 67 19.4 29 -1.7 24 24 NW 9 15 29.88 1012 10 16 N/A
6:51 pm 18:51 Clear 62 16.7 28 -2.2 28 28 NW 3 6 29.92 1013 10 16 N/A
7:51 pm 19:51 Clear 57 13.9 29 -1.7 34 34 N N/A 29.94 1014 10 16 N/A
8:51 pm 20:51 Clear 56 13.3 32 undefined 40 40 W 6 9 29.96 1015 10 16 N/A
9:51 pm 21:51 Clear 52 11.1 32 undefined 47 47 WNW 5 7 29.98 1015 10 16 N/A
10:51 pm 22:51 Clear 48 8.9 32 undefined 54 54 NW 6 9 29.99 1016 10 16 N/A
11:51 pm 23:51 Clear 47 8.3 32 undefined 56 56 NNW 5 7 29.98 1015 10 16 N/A

Powered by AerisWeather